Tracking 28529 objects as of 25-Feb-2024
HD Live streaming from Space Station
objects crossing your sky now

MINOTAUR 4 R/B

Track MINOTAUR 4 R/B now!
10-day predictions


NORAD ID: 37228
Int'l Code: 2010-062G
Perigee: 613.4 km
Apogee: 654.1 km
Inclination: 72.0 °
Period: 97.2 minutes
Semi major axis: 7004 km
RCS: Unknown
Launch date: November 20, 2010
Source: United States (US)
Launch site: Kodiak Island, Alaska (KODAK)

Note: This is a ROCKET BODY
Your satellite tracking list
Your tracking list is empty




NASA's NSSDC Master Catalog

Two Line Element Set (TLE):
1 37228U 10062G   23363.78931410 0.00001750  00000-0  22468-3 0    02
2 37228  71.9684 353.2153 0029081  46.0484 313.9515 14.80861403    09
Source of the keplerian elements: McCants